Time,TemperatureF,DewpointF,PressureIn,WindDirection,WindDirectionDegrees,WindSpeedMPH,WindSpeedGustMPH,Humidity,HourlyPrecipIn,Conditions,Clouds,dailyrainin,SoftwareType,DateUTC
2013-07-15 00:05:00,77.5,72.3,30.14,NW,315,0.0,1.2,84,0.00,OVC,FEW,0.00,WeatherDisplay:10.37,2013-07-15 05:05:00,
2013-07-15 00:11:00,77.7,72.5,30.14,NW,315,0.0,1.2,84,0.00,OVC,FEW,0.00,WeatherDisplay:10.37,2013-07-15 05:11:00,
2013-07-15 00:16:00,77.4,72.1,30.14,North,0,0.0,1.2,84,0.00,OVC,FEW,0.00,WeatherDisplay:10.37,2013-07-15 05:16:00,
2013-07-15 00:22:00,77.4,72.1,30.14,NW,315,0.0,0.0,84,0.00,OVC,FEW,0.00,WeatherDisplay:10.37,2013-07-15 05:22:00,
2013-07-15 00:27:00,77.2,72.0,30.14,North,0,0.0,0.0,84,0.00,OVC,FEW,0.00,WeatherDisplay:10.37,2013-07-15 05:27:00,
2013-07-15 00:33:00,77.0,71.8,30.14,North,0,0.0,0.0,84,0.00,OVC,FEW,0.00,WeatherDisplay:10.37,2013-07-15 05:33:00,
2013-07-15 00:39:00,76.8,71.6,30.14,West,270,0.0,1.2,84,0.00,OVC,FEW,0.00,WeatherDisplay:10.37,2013-07-15 05:39:00,
2013-07-15 00:44:00,76.5,71.3,30.14,SE,135,0.0,0.0,84,0.00,OVC,FEW,0.00,WeatherDisplay:10.37,2013-07-15 05:44:00,
2013-07-15 00:50:00,76.3,71.1,30.14,SE,135,0.0,0.0,84,0.00,OVC,FEW,0.00,WeatherDisplay:10.37,2013-07-15 05:50:00,
2013-07-15 00:55:00,76.3,71.1,30.14,North,0,0.0,1.2,84,0.00,OVC,FEW,0.00,WeatherDisplay:10.37,2013-07-15 05:55:00,
2013-07-15 01:01:00,76.3,71.1,30.14,North,0,0.0,3.5,84,0.00,OVC,FEW,0.00,WeatherDisplay:10.37,2013-07-15 06:01:00,
2013-07-15 01:07:00,76.1,70.9,30.14,NE,45,0.0,1.2,84,0.00,OVC,FEW,0.00,WeatherDisplay:10.37,2013-07-15 06:07:00,
2013-07-15 01:12:00,75.7,70.6,30.14,North,0,0.0,1.2,84,0.00,OVC,FEW,0.00,WeatherDisplay:10.37,2013-07-15 06:12:00,
2013-07-15 01:18:00,75.7,70.6,30.14,North,0,0.0,0.0,84,0.00,OVC,FEW,0.00,WeatherDisplay:10.37,2013-07-15 06:18:00,
2013-07-15 01:23:00,75.4,70.2,30.14,North,0,0.0,0.0,84,0.00,OVC,FEW,0.00,WeatherDisplay:10.37,2013-07-15 06:23:00,
2013-07-15 01:29:00,75.2,70.0,30.15,North,0,0.0,0.0,84,0.00,OVC,FEW,0.00,WeatherDisplay:10.37,2013-07-15 06:29:00,
2013-07-15 01:35:00,75.2,70.0,30.14,North,0,0.0,0.0,84,0.00,OVC,FEW,0.00,WeatherDisplay:10.37,2013-07-15 06:35:00,
2013-07-15 01:40:00,75.0,69.9,30.14,North,0,0.0,0.0,84,0.00,OVC,FEW,0.00,WeatherDisplay:10.37,2013-07-15 06:40:00,
2013-07-15 01:46:00,74.8,69.7,30.14,North,0,0.0,0.0,84,0.00,OVC,FEW,0.00,WeatherDisplay:10.37,2013-07-15 06:46:00,
2013-07-15 01:51:00,74.7,69.5,30.15,North,0,0.0,0.0,84,0.00,OVC,FEW,0.00,WeatherDisplay:10.37,2013-07-15 06:51:00,
2013-07-15 01:57:00,74.7,69.5,30.14,North,0,0.0,0.0,84,0.00,OVC,FEW,0.00,WeatherDisplay:10.37,2013-07-15 06:57:00,
2013-07-15 02:03:00,74.3,69.1,30.15,North,0,0.0,0.0,84,0.00,OVC,FEW,0.00,WeatherDisplay:10.37,2013-07-15 07:03:00,
2013-07-15 02:08:00,74.5,69.3,30.15,North,0,0.0,0.0,84,0.00,OVC,FEW,0.00,WeatherDisplay:10.37,2013-07-15 07:08:00,
2013-07-15 02:14:00,74.3,69.1,30.15,North,0,0.0,0.0,84,0.00,OVC,FEW,0.00,WeatherDisplay:10.37,2013-07-15 07:14:00,
2013-07-15 02:19:00,74.5,69.3,30.15,North,0,0.0,0.0,84,0.00,OVC,FEW,0.00,WeatherDisplay:10.37,2013-07-15 07:19:00,
2013-07-15 02:25:00,74.5,69.3,30.15,North,0,0.0,0.0,84,0.00,OVC,FEW,0.00,WeatherDisplay:10.37,2013-07-15 07:25:00,
2013-07-15 02:31:00,74.3,69.1,30.15,North,0,0.0,0.0,84,0.00,OVC,FEW,0.00,WeatherDisplay:10.37,2013-07-15 07:31:00,
2013-07-15 02:36:00,74.1,69.0,30.15,North,0,0.0,0.0,84,0.00,OVC,FEW,0.00,WeatherDisplay:10.37,2013-07-15 07:36:00,
2013-07-15 02:42:00,74.1,69.0,30.15,North,0,0.0,0.0,84,0.00,OVC,FEW,0.00,WeatherDisplay:10.37,2013-07-15 07:42:00,
2013-07-15 02:47:00,73.9,68.8,30.15,North,0,0.0,0.0,84,0.00,OVC,FEW,0.00,WeatherDisplay:10.37,2013-07-15 07:47:00,
2013-07-15 02:53:00,73.9,68.8,30.15,North,0,0.0,0.0,84,0.00,OVC,FEW,0.00,WeatherDisplay:10.37,2013-07-15 07:53:00,
2013-07-15 02:59:00,73.9,68.8,30.15,East,90,0.0,0.0,84,0.00,OVC,FEW,0.00,WeatherDisplay:10.37,2013-07-15 07:59:00,
2013-07-15 03:04:00,74.1,69.0,30.15,East,90,0.0,0.0,84,0.00,OVC,FEW,0.00,WeatherDisplay:10.37,2013-07-15 08:04:00,
2013-07-15 03:10:00,73.9,68.8,30.15,East,90,0.0,0.0,84,0.00,OVC,FEW,0.00,WeatherDisplay:10.37,2013-07-15 08:10:00,
2013-07-15 03:15:00,73.9,68.8,30.15,East,90,0.0,0.0,84,0.00,OVC,FEW,0.00,WeatherDisplay:10.37,2013-07-15 08:15:00,
2013-07-15 03:21:00,73.8,68.6,30.15,East,90,0.0,0.0,84,0.00,OVC,FEW,0.00,WeatherDisplay:10.37,2013-07-15 08:21:00,
2013-07-15 03:27:00,73.8,68.6,30.15,East,90,0.0,0.0,84,0.00,OVC,FEW,0.00,WeatherDisplay:10.37,2013-07-15 08:27:00,
2013-07-15 03:32:00,73.8,68.6,30.15,East,90,0.0,0.0,84,0.00,OVC,FEW,0.00,WeatherDisplay:10.37,2013-07-15 08:32:00,
2013-07-15 03:38:00,73.8,68.6,30.15,East,90,0.0,1.2,84,0.00,OVC,FEW,0.00,WeatherDisplay:10.37,2013-07-15 08:38:00,
2013-07-15 03:43:00,73.9,68.8,30.15,East,90,0.0,0.0,84,0.00,OVC,FEW,0.00,WeatherDisplay:10.37,2013-07-15 08:43:00,
2013-07-15 03:49:00,73.8,68.6,30.15,East,90,0.0,1.2,84,0.00,OVC,FEW,0.00,WeatherDisplay:10.37,2013-07-15 08:49:00,
2013-07-15 03:55:00,73.8,68.6,30.15,East,90,0.0,1.2,84,0.00,OVC,FEW,0.00,WeatherDisplay:10.37,2013-07-15 08:55:00,
2013-07-15 04:00:00,73.8,68.6,30.15,NE,45,0.0,0.0,84,0.00,OVC,FEW,0.00,WeatherDisplay:10.37,2013-07-15 09:00:00,
2013-07-15 04:06:00,73.9,68.8,30.15,East,90,0.0,1.2,84,0.00,OVC,FEW,0.00,WeatherDisplay:10.37,2013-07-15 09:06:00,
2013-07-15 04:11:00,73.8,68.6,30.15,East,90,0.0,0.0,84,0.00,OVC,FEW,0.00,WeatherDisplay:10.37,2013-07-15 09:11:00,
2013-07-15 04:17:00,73.8,68.6,30.15,East,90,0.0,1.2,84,0.00,OVC,FEW,0.00,WeatherDisplay:10.37,2013-07-15 09:17:00,
2013-07-15 04:23:00,73.8,68.6,30.15,NE,45,0.0,1.2,84,0.00,OVC,FEW,0.00,WeatherDisplay:10.37,2013-07-15 09:23:00,
2013-07-15 04:28:00,73.6,68.4,30.15,NE,45,0.0,0.0,84,0.00,OVC,FEW,0.00,WeatherDisplay:10.37,2013-07-15 09:28:00,
2013-07-15 04:34:00,73.8,68.6,30.15,East,90,0.0,1.2,84,0.00,OVC,FEW,0.00,WeatherDisplay:10.37,2013-07-15 09:34:00,
2013-07-15 04:39:00,73.9,68.8,30.15,East,90,0.0,1.2,84,0.00,OVC,FEW,0.00,WeatherDisplay:10.37,2013-07-15 09:39:00,
2013-07-15 04:45:00,73.9,68.8,30.15,East,90,0.7,1.6,84,0.00,OVC,FEW,0.00,WeatherDisplay:10.37,2013-07-15 09:45:00,
2013-07-15 04:51:00,73.9,68.8,30.15,East,90,0.0,1.2,84,0.00,OVC,FEW,0.00,WeatherDisplay:10.37,2013-07-15 09:51:00,
2013-07-15 04:56:00,73.9,68.8,30.16,East,90,0.0,1.2,84,0.00,OVC,FEW,0.00,WeatherDisplay:10.37,2013-07-15 09:56:00,
2013-07-15 05:02:00,73.8,68.6,30.16,NE,45,0.0,0.0,84,0.00,OVC,FEW,0.00,WeatherDisplay:10.37,2013-07-15 10:02:00,
2013-07-15 05:07:00,73.6,68.4,30.15,NE,45,0.0,0.0,84,0.00,OVC,FEW,0.00,WeatherDisplay:10.37,2013-07-15 10:07:00,
2013-07-15 05:13:00,73.4,68.3,30.16,NE,45,0.0,0.0,84,0.00,OVC,FEW,0.00,WeatherDisplay:10.37,2013-07-15 10:13:00,
2013-07-15 05:19:00,73.2,68.1,30.16,North,0,0.0,1.2,84,0.00,OVC,FEW,0.00,WeatherDisplay:10.37,2013-07-15 10:19:00,
2013-07-15 05:24:00,73.0,67.9,30.16,North,0,0.0,1.2,84,0.00,OVC,FEW,0.00,WeatherDisplay:10.37,2013-07-15 10:24:00,
2013-07-15 05:30:00,72.9,67.7,30.17,North,0,0.0,1.2,84,0.00,OVC,FEW,0.00,WeatherDisplay:10.37,2013-07-15 10:30:00,
2013-07-15 05:35:00,72.9,67.7,30.17,East,90,0.0,1.2,84,0.00,OVC,FEW,0.00,WeatherDisplay:10.37,2013-07-15 10:35:00,
2013-07-15 05:41:00,73.0,67.9,30.17,East,90,0.0,1.2,84,0.00,OVC,FEW,0.00,WeatherDisplay:10.37,2013-07-15 10:41:00,
2013-07-15 05:47:00,73.0,67.9,30.17,East,90,0.0,1.2,84,0.00,OVC,FEW,0.00,WeatherDisplay:10.37,2013-07-15 10:47:00,
2013-07-15 05:52:00,72.9,67.7,30.17,East,90,0.0,0.0,84,0.00,OVC,FEW,0.00,WeatherDisplay:10.37,2013-07-15 10:52:00,
2013-07-15 05:58:00,72.9,67.7,30.17,East,90,0.0,1.2,84,0.00,OVC,FEW,0.00,WeatherDisplay:10.37,2013-07-15 10:58:00,
2013-07-15 06:03:00,72.7,67.6,30.17,East,90,0.0,0.0,84,0.00,OVC,FEW,0.00,WeatherDisplay:10.37,2013-07-15 11:03:00,
2013-07-15 06:09:00,72.7,67.6,30.17,East,90,0.0,1.2,84,0.00,OVC,FEW,0.00,WeatherDisplay:10.37,2013-07-15 11:09:00,
2013-07-15 06:15:00,72.9,67.7,30.17,East,90,0.0,0.0,84,0.00,OVC,FEW,0.00,WeatherDisplay:10.37,2013-07-15 11:15:00,
2013-07-15 06:20:00,72.9,67.7,30.17,East,90,0.0,0.0,84,0.00,OVC,FEW,0.00,WeatherDisplay:10.37,2013-07-15 11:20:00,
2013-07-15 06:26:00,73.0,67.9,30.17,East,90,0.0,0.0,84,0.00,OVC,FEW,0.00,WeatherDisplay:10.37,2013-07-15 11:26:00,
2013-07-15 06:31:00,73.2,68.1,30.17,East,90,0.0,0.0,84,0.00,OVC,FEW,0.00,WeatherDisplay:10.37,2013-07-15 11:31:00,
2013-07-15 06:37:00,73.4,68.3,30.18,East,90,0.0,0.0,84,0.00,OVC,FEW,0.00,WeatherDisplay:10.37,2013-07-15 11:37:00,
2013-07-15 06:43:00,73.8,68.6,30.17,East,90,0.0,0.0,84,0.00,OVC,FEW,0.00,WeatherDisplay:10.37,2013-07-15 11:43:00,
2013-07-15 06:48:00,73.9,68.8,30.18,East,90,0.0,1.2,84,0.00,OVC,FEW,0.00,WeatherDisplay:10.37,2013-07-15 11:48:00,
2013-07-15 06:54:00,74.5,69.3,30.18,NE,45,0.0,0.0,84,0.00,OVC,FEW,0.00,WeatherDisplay:10.37,2013-07-15 11:54:00,
2013-07-15 06:59:00,74.8,69.7,30.18,SE,135,0.0,1.2,84,0.00,OVC,FEW,0.00,WeatherDisplay:10.37,2013-07-15 11:59:00,
2013-07-15 07:05:00,75.2,70.0,30.18,East,90,0.0,1.2,84,0.00,OVC,FEW,0.00,WeatherDisplay:10.37,2013-07-15 12:05:00,
2013-07-15 07:11:00,75.4,70.2,30.18,NE,45,0.0,1.2,84,0.00,OVC,FEW,0.00,WeatherDisplay:10.37,2013-07-15 12:11:00,
2013-07-15 07:16:00,75.6,70.4,30.18,East,90,0.0,0.0,84,0.00,OVC,FEW,0.00,WeatherDisplay:10.37,2013-07-15 12:16:00,
2013-07-15 07:22:00,76.1,70.9,30.18,NW,315,0.0,0.0,84,0.00,OVC,FEW,0.00,WeatherDisplay:10.37,2013-07-15 12:22:00,
2013-07-15 07:27:00,76.5,71.3,30.18,East,90,0.0,1.6,84,0.00,OVC,FEW,0.00,WeatherDisplay:10.37,2013-07-15 12:27:00,
2013-07-15 07:33:00,76.6,71.4,30.19,East,90,0.0,1.2,84,0.00,OVC,FEW,0.00,WeatherDisplay:10.37,2013-07-15 12:33:00,
2013-07-15 07:39:00,76.8,71.6,30.19,SE,135,0.0,1.2,84,0.00,OVC,FEW,0.00,WeatherDisplay:10.37,2013-07-15 12:39:00,
2013-07-15 07:44:00,77.2,72.0,30.19,NE,45,0.0,1.2,84,0.00,OVC,FEW,0.00,WeatherDisplay:10.37,2013-07-15 12:44:00,
2013-07-15 07:50:00,77.5,72.3,30.19,North,0,0.0,1.2,84,0.00,OVC,FEW,0.00,WeatherDisplay:10.37,2013-07-15 12:50:00,
2013-07-15 07:55:00,78.1,72.8,30.19,SW,225,0.0,1.2,84,0.00,OVC,FEW,0.00,WeatherDisplay:10.37,2013-07-15 12:55:00,
2013-07-15 08:01:00,78.4,73.2,30.19,SW,225,0.0,0.0,84,0.00,OVC,FEW,0.00,WeatherDisplay:10.37,2013-07-15 13:01:00,
2013-07-15 08:07:00,79.3,74.1,30.19,NE,45,0.0,2.3,84,0.00,OVC,FEW,0.00,WeatherDisplay:10.37,2013-07-15 13:07:00,
2013-07-15 08:12:00,79.3,74.1,30.19,East,90,0.7,2.2,84,0.00,OVC,FEW,0.00,WeatherDisplay:10.37,2013-07-15 13:12:00,
2013-07-15 08:18:00,79.0,73.7,30.19,NW,315,0.0,1.2,84,0.00,OVC,FEW,0.00,WeatherDisplay:10.37,2013-07-15 13:18:00,
2013-07-15 08:23:00,79.5,74.3,30.20,North,0,0.0,2.3,84,0.00,OVC,FEW,0.00,WeatherDisplay:10.37,2013-07-15 13:23:00,
2013-07-15 08:29:00,79.7,74.4,30.20,East,90,0.0,1.2,84,0.00,OVC,FEW,0.00,WeatherDisplay:10.37,2013-07-15 13:29:00,
2013-07-15 08:35:00,80.2,75.0,30.20,South,180,0.0,1.2,84,0.00,OVC,FEW,0.00,WeatherDisplay:10.37,2013-07-15 13:35:00,
2013-07-15 08:40:00,80.8,75.5,30.20,SE,135,0.0,1.6,84,0.00,OVC,FEW,0.00,WeatherDisplay:10.37,2013-07-15 13:40:00,
2013-07-15 08:46:00,81.3,76.0,30.20,SE,135,0.0,1.2,84,0.00,OVC,FEW,0.00,WeatherDisplay:10.37,2013-07-15 13:46:00,
2013-07-15 08:51:00,81.3,75.7,30.20,NE,45,0.0,1.2,83,0.00,OVC,FEW,0.00,WeatherDisplay:10.37,2013-07-15 13:51:00,
2013-07-15 08:57:00,81.7,76.4,30.20,East,90,0.0,2.3,84,0.00,OVC,FEW,0.00,WeatherDisplay:10.37,2013-07-15 13:57:00,
2013-07-15 09:03:00,82.0,76.4,30.20,NE,45,0.0,1.2,83,0.00,OVC,FEW,0.00,WeatherDisplay:10.37,2013-07-15 14:03:00,
2013-07-15 09:08:00,83.1,76.3,30.20,NE,45,1.6,3.5,80,0.00,OVC,FEW,0.00,WeatherDisplay:10.37,2013-07-15 14:08:00,
2013-07-15 09:14:00,84.9,77.3,30.20,North,0,0.0,1.2,78,0.00,OVC,FEW,0.00,WeatherDisplay:10.37,2013-07-15 14:14:00,
2013-07-15 09:19:00,85.8,77.0,30.19,NE,45,0.0,1.2,75,0.00,OVC,FEW,0.00,WeatherDisplay:10.37,2013-07-15 14:19:00,
2013-07-15 09:25:00,86.0,76.7,30.19,NE,45,0.0,1.2,74,0.00,OVC,FEW,0.00,WeatherDisplay:10.37,2013-07-15 14:25:00,
2013-07-15 09:31:00,87.6,77.0,30.19,NE,45,0.0,1.6,71,0.00,OVC,FEW,0.00,WeatherDisplay:10.37,2013-07-15 14:31:00,
2013-07-15 09:36:00,88.3,76.9,30.20,NE,45,0.7,1.2,69,0.00,OVC,FEW,0.00,WeatherDisplay:10.37,2013-07-15 14:36:00,
2013-07-15 09:42:00,88.7,76.3,30.20,East,90,0.7,2.3,67,0.00,OVC,FEW,0.00,WeatherDisplay:10.37,2013-07-15 14:42:00,
2013-07-15 09:47:00,88.5,76.6,30.19,SW,225,0.0,3.5,68,0.00,OVC,FEW,0.00,WeatherDisplay:10.37,2013-07-15 14:47:00,
2013-07-15 09:53:00,88.2,76.3,30.19,SE,135,0.0,1.2,68,0.00,OVC,FEW,0.00,WeatherDisplay:10.37,2013-07-15 14:53:00,
2013-07-15 09:59:00,89.2,76.8,30.20,East,90,0.7,1.2,67,0.00,OVC,FEW,0.00,WeatherDisplay:10.37,2013-07-15 14:59:00,
2013-07-15 10:04:00,88.9,76.9,30.20,West,270,0.0,1.2,68,0.00,OVC,FEW,0.00,WeatherDisplay:10.37,2013-07-15 15:04:00,
2013-07-15 10:10:00,88.5,76.6,30.20,East,90,0.0,1.2,68,0.00,OVC,FEW,0.00,WeatherDisplay:10.37,2013-07-15 15:10:00,
2013-07-15 10:15:00,89.6,77.6,30.19,NE,45,0.0,1.2,68,0.00,OVC,FEW,0.00,WeatherDisplay:10.37,2013-07-15 15:15:00,
2013-07-15 10:21:00,91.2,77.8,30.19,SW,225,0.0,1.2,65,0.00,OVC,FEW,0.00,WeatherDisplay:10.37,2013-07-15 15:21:00,
2013-07-15 10:27:00,92.1,77.2,30.20,SE,135,0.0,1.2,62,0.00,OVC,FEW,0.00,WeatherDisplay:10.37,2013-07-15 15:27:00,
2013-07-15 10:32:00,93.4,77.4,30.19,South,180,0.0,1.2,60,0.00,OVC,FEW,0.00,WeatherDisplay:10.37,2013-07-15 15:32:00,
2013-07-15 10:38:00,93.4,76.4,30.20,East,90,0.7,1.2,58,0.00,OVC,FEW,0.00,WeatherDisplay:10.37,2013-07-15 15:38:00,
2013-07-15 10:43:00,93.6,77.1,30.20,East,90,1.6,3.5,59,0.00,OVC,FEW,0.00,WeatherDisplay:10.37,2013-07-15 15:43:00,
2013-07-15 10:49:00,92.8,76.9,30.19,East,90,0.0,3.5,60,0.00,OVC,FEW,0.00,WeatherDisplay:10.37,2013-07-15 15:49:00,
2013-07-15 10:55:00,93.4,75.9,30.20,SE,135,0.7,3.1,57,0.00,OVC,FEW,0.00,WeatherDisplay:10.37,2013-07-15 15:55:00,
2013-07-15 11:00:00,93.0,76.1,30.20,North,0,0.7,2.3,58,0.00,OVC,FEW,0.00,WeatherDisplay:10.37,2013-07-15 16:00:00,
2013-07-15 11:06:00,92.8,75.9,30.20,SE,135,0.7,3.5,58,0.00,OVC,FEW,0.00,WeatherDisplay:10.37,2013-07-15 16:06:00,
2013-07-15 11:11:00,93.6,77.1,30.20,East,90,0.7,2.3,59,0.00,OVC,FEW,0.00,WeatherDisplay:10.37,2013-07-15 16:11:00,
2013-07-15 11:17:00,93.0,76.6,30.20,North,0,0.0,3.5,59,0.00,OVC,FEW,0.00,WeatherDisplay:10.37,2013-07-15 16:17:00,
2013-07-15 11:23:00,93.2,76.7,30.20,NNE,22,0.7,1.6,59,0.00,OVC,FEW,0.00,WeatherDisplay:10.37,2013-07-15 16:23:00,
2013-07-15 11:28:00,93.9,76.9,30.20,West,270,0.7,1.2,58,0.00,OVC,FEW,0.00,WeatherDisplay:10.37,2013-07-15 16:28:00,
2013-07-15 11:34:00,93.7,76.7,30.20,NE,45,0.0,1.2,58,0.00,OVC,FEW,0.00,WeatherDisplay:10.37,2013-07-15 16:34:00,
2013-07-15 11:39:00,94.1,76.5,30.20,NW,315,0.0,3.5,57,0.00,OVC,FEW,0.00,WeatherDisplay:10.37,2013-07-15 16:39:00,
2013-07-15 11:46:00,92.1,76.2,30.19,SW,225,0.7,3.5,60,0.00,OVC,FEW,0.00,WeatherDisplay:10.37,2013-07-15 16:46:00,
2013-07-15 11:51:00,90.7,76.3,30.20,SE,135,0.0,1.2,63,0.00,OVC,FEW,0.00,WeatherDisplay:10.37,2013-07-15 16:51:00,
2013-07-15 11:57:00,92.5,76.1,30.19,South,180,1.6,3.8,59,0.00,OVC,FEW,0.00,WeatherDisplay:10.37,2013-07-15 16:57:00,
2013-07-15 12:03:00,93.0,77.1,30.19,SE,135,1.6,3.5,60,0.00,OVC,FEW,0.00,WeatherDisplay:10.37,2013-07-15 17:03:00,
2013-07-15 12:08:00,90.7,75.9,30.19,SE,135,2.2,4.5,62,0.00,OVC,FEW,0.00,WeatherDisplay:10.37,2013-07-15 17:08:00,
2013-07-15 12:14:00,91.2,76.9,30.19,North,0,0.7,3.8,63,0.00,OVC,FEW,0.00,WeatherDisplay:10.37,2013-07-15 17:14:00,
2013-07-15 12:19:00,92.7,75.7,30.20,NE,45,3.1,5.8,58,0.00,OVC,FEW,0.00,WeatherDisplay:10.37,2013-07-15 17:19:00,
2013-07-15 12:25:00,92.7,76.7,30.19,East,90,0.0,2.3,60,0.00,OVC,FEW,0.00,WeatherDisplay:10.37,2013-07-15 17:25:00,
2013-07-15 12:31:00,93.2,75.2,30.19,East,90,0.7,4.6,56,0.00,OVC,FEW,0.00,WeatherDisplay:10.37,2013-07-15 17:31:00,
2013-07-15 12:36:00,94.3,76.2,30.19,SE,135,0.0,2.3,56,0.00,OVC,FEW,0.00,WeatherDisplay:10.37,2013-07-15 17:36:00,
2013-07-15 12:42:00,94.8,76.1,30.19,SE,135,0.0,3.5,55,0.00,OVC,FEW,0.00,WeatherDisplay:10.37,2013-07-15 17:42:00,
2013-07-15 12:47:00,94.8,75.0,30.19,SW,225,0.0,4.6,53,0.00,OVC,FEW,0.00,WeatherDisplay:10.37,2013-07-15 17:47:00,
2013-07-15 12:53:00,94.8,75.6,30.19,East,90,1.6,3.5,54,0.00,OVC,FEW,0.00,WeatherDisplay:10.37,2013-07-15 17:53:00,
2013-07-15 12:59:00,94.3,75.6,30.19,SE,135,0.0,2.3,55,0.00,OVC,FEW,0.00,WeatherDisplay:10.37,2013-07-15 17:59:00,
2013-07-15 13:04:00,93.6,75.0,30.19,West,270,0.7,3.5,55,0.00,OVC,FEW,0.00,WeatherDisplay:10.37,2013-07-15 18:04:00,
2013-07-15 13:10:00,91.8,74.9,30.19,South,180,0.7,3.5,58,0.00,OVC,FEW,0.00,WeatherDisplay:10.37,2013-07-15 18:10:00,
2013-07-15 13:17:00,91.4,75.6,30.18,East,90,0.0,2.3,60,0.00,OVC,FEW,0.00,WeatherDisplay:10.37,2013-07-15 18:17:00,
2013-07-15 13:23:00,90.7,75.9,30.19,South,180,0.0,1.6,62,0.00,OVC,FEW,0.00,WeatherDisplay:10.37,2013-07-15 18:23:00,
2013-07-15 13:28:00,91.8,75.9,30.18,NE,45,0.7,3.5,60,0.00,OVC,FEW,0.00,WeatherDisplay:10.37,2013-07-15 18:28:00,
2013-07-15 13:35:00,92.1,75.7,30.18,South,180,0.7,3.5,59,0.00,OVC,FEW,0.00,WeatherDisplay:10.37,2013-07-15 18:35:00,
2013-07-15 13:40:00,92.3,75.4,30.18,East,90,0.0,5.8,58,0.00,OVC,FEW,0.00,WeatherDisplay:10.37,2013-07-15 18:40:00,
2013-07-15 13:46:00,91.6,73.7,30.18,East,90,0.7,3.5,56,0.00,OVC,FEW,0.00,WeatherDisplay:10.37,2013-07-15 18:46:00,
2013-07-15 13:51:00,93.0,76.6,30.18,SE,135,0.0,3.5,59,0.00,OVC,FEW,0.00,WeatherDisplay:10.37,2013-07-15 18:51:00,
2013-07-15 13:57:00,95.2,76.5,30.17,North,0,0.7,3.1,55,0.00,OVC,FEW,0.00,WeatherDisplay:10.37,2013-07-15 18:57:00,
2013-07-15 14:03:00,95.4,76.6,30.17,SE,135,0.7,1.2,55,0.00,OVC,FEW,0.00,WeatherDisplay:10.37,2013-07-15 19:03:00,
2013-07-15 14:08:00,95.0,75.2,30.17,SE,135,0.7,3.5,53,0.00,OVC,FEW,0.00,WeatherDisplay:10.37,2013-07-15 19:08:00,
2013-07-15 14:14:00,95.7,76.4,30.17,NE,45,0.7,1.2,54,0.00,OVC,FEW,0.00,WeatherDisplay:10.37,2013-07-15 19:14:00,
2013-07-15 14:20:00,95.7,75.8,30.17,SE,135,0.0,2.3,53,0.00,OVC,FEW,0.00,WeatherDisplay:10.37,2013-07-15 19:20:00,
2013-07-15 14:26:00,94.5,75.2,30.17,SE,135,0.7,3.5,54,0.00,OVC,FEW,0.00,WeatherDisplay:10.37,2013-07-15 19:26:00,
2013-07-15 14:32:00,93.4,74.2,30.17,East,90,0.7,4.6,54,0.00,OVC,FEW,0.00,WeatherDisplay:10.37,2013-07-15 19:32:00,
2013-07-15 14:38:00,92.3,75.4,30.17,East,90,0.0,3.5,58,0.00,OVC,FEW,0.00,WeatherDisplay:10.37,2013-07-15 19:38:00,
2013-07-15 14:44:00,93.4,76.4,30.17,East,90,0.7,2.3,58,0.00,OVC,FEW,0.00,WeatherDisplay:10.37,2013-07-15 19:44:00,
2013-07-15 14:50:00,93.6,76.0,30.17,NW,315,0.7,1.6,57,0.00,OVC,FEW,0.00,WeatherDisplay:10.37,2013-07-15 19:50:00,
2013-07-15 14:56:00,94.6,76.5,30.17,ESE,112,0.0,3.5,56,0.00,OVC,FEW,0.00,WeatherDisplay:10.37,2013-07-15 19:56:00,
2013-07-15 15:02:00,95.5,76.2,30.16,NE,45,1.6,3.8,54,0.00,OVC,FEW,0.00,WeatherDisplay:10.37,2013-07-15 20:02:00,
2013-07-15 15:07:00,95.5,76.2,30.16,South,180,0.0,1.2,54,0.00,OVC,FEW,0.00,WeatherDisplay:10.37,2013-07-15 20:07:00,
2013-07-15 15:13:00,97.2,74.8,30.15,SW,225,0.7,2.3,49,0.00,OVC,FEW,0.00,WeatherDisplay:10.37,2013-07-15 20:13:00,
2013-07-15 15:19:00,97.3,76.2,30.16,NE,45,0.0,3.5,51,0.00,OVC,FEW,0.00,WeatherDisplay:10.37,2013-07-15 20:19:00,
2013-07-15 15:24:00,96.8,74.5,30.15,East,90,0.7,3.5,49,0.00,OVC,FEW,0.00,WeatherDisplay:10.37,2013-07-15 20:24:00,
2013-07-15 15:30:00,96.6,76.1,30.15,NE,45,1.6,3.5,52,0.00,OVC,FEW,0.00,WeatherDisplay:10.37,2013-07-15 20:30:00,
2013-07-15 15:35:00,96.3,75.2,30.15,NE,45,1.6,3.8,51,0.00,OVC,FEW,0.00,WeatherDisplay:10.37,2013-07-15 20:35:00,
2013-07-15 15:41:00,95.9,75.4,30.15,East,90,0.7,3.5,52,0.00,OVC,FEW,0.00,WeatherDisplay:10.37,2013-07-15 20:41:00,
2013-07-15 15:47:00,94.3,75.1,30.15,NE,45,0.0,3.5,54,0.00,OVC,FEW,0.00,WeatherDisplay:10.37,2013-07-15 20:47:00,
2013-07-15 15:53:00,91.9,74.5,30.14,East,90,0.7,3.5,57,0.00,OVC,FEW,0.00,WeatherDisplay:10.37,2013-07-15 20:53:00,
2013-07-15 15:59:00,91.9,74.5,30.15,ENE,68,0.7,3.5,57,0.00,OVC,FEW,0.00,WeatherDisplay:10.37,2013-07-15 20:59:00,
2013-07-15 16:07:00,94.3,76.7,30.15,SW,225,0.0,2.3,57,0.00,OVC,FEW,0.00,WeatherDisplay:10.37,2013-07-15 21:07:00,
2013-07-15 16:12:00,95.7,75.8,30.15,SW,225,0.7,2.3,53,0.00,OVC,FEW,0.00,WeatherDisplay:10.37,2013-07-15 21:12:00,
2013-07-15 16:18:00,97.0,74.7,30.14,East,90,1.6,3.5,49,0.00,OVC,FEW,0.00,WeatherDisplay:10.37,2013-07-15 21:18:00,
2013-07-15 16:23:00,96.4,75.4,30.14,NW,315,0.0,2.3,51,0.00,OVC,FEW,0.00,WeatherDisplay:10.37,2013-07-15 21:23:00,
2013-07-15 16:29:00,95.7,74.7,30.14,NE,45,0.7,2.3,51,0.00,OVC,FEW,0.00,WeatherDisplay:10.37,2013-07-15 21:29:00,
2013-07-15 16:35:00,93.6,74.4,30.14,South,180,0.0,2.3,54,0.00,OVC,FEW,0.00,WeatherDisplay:10.37,2013-07-15 21:35:00,
2013-07-15 16:40:00,91.8,74.4,30.14,East,90,0.0,2.3,57,0.00,OVC,FEW,0.00,WeatherDisplay:10.37,2013-07-15 21:40:00,
2013-07-15 16:46:00,91.8,75.4,30.14,SW,225,0.0,3.5,59,0.00,OVC,FEW,0.00,WeatherDisplay:10.37,2013-07-15 21:46:00,
2013-07-15 16:52:00,91.6,74.7,30.14,East,90,0.7,3.5,58,0.00,OVC,FEW,0.00,WeatherDisplay:10.37,2013-07-15 21:52:00,
2013-07-15 16:58:00,90.9,74.0,30.14,East,90,0.0,3.5,58,0.00,OVC,FEW,0.00,WeatherDisplay:10.37,2013-07-15 21:58:00,
2013-07-15 17:03:00,90.0,74.2,30.14,East,90,0.0,1.2,60,0.00,OVC,FEW,0.00,WeatherDisplay:10.37,2013-07-15 22:03:00,
2013-07-15 17:09:00,90.0,75.2,30.13,East,90,0.7,2.2,62,0.00,OVC,FEW,0.00,WeatherDisplay:10.37,2013-07-15 22:09:00,
2013-07-15 17:15:00,90.0,74.2,30.14,SE,135,0.7,3.5,60,0.00,OVC,FEW,0.00,WeatherDisplay:10.37,2013-07-15 22:15:00,
2013-07-15 17:20:00,89.2,75.0,30.14,SE,135,0.0,2.3,63,0.00,OVC,FEW,0.00,WeatherDisplay:10.37,2013-07-15 22:20:00,
2013-07-15 17:26:00,88.5,74.8,30.14,North,0,0.0,1.2,64,0.00,OVC,FEW,0.00,WeatherDisplay:10.37,2013-07-15 22:26:00,
2013-07-15 17:31:00,89.1,75.8,30.14,East,90,0.7,2.3,65,0.00,OVC,FEW,0.00,WeatherDisplay:10.37,2013-07-15 22:31:00,
2013-07-15 17:37:00,89.4,74.2,30.13,East,90,1.6,5.8,61,0.00,OVC,FEW,0.00,WeatherDisplay:10.37,2013-07-15 22:37:00,
2013-07-15 17:43:00,89.6,75.3,30.13,East,90,1.6,5.8,63,0.00,OVC,FEW,0.00,WeatherDisplay:10.37,2013-07-15 22:43:00,
2013-07-15 17:48:00,89.8,74.5,30.13,East,90,0.7,3.5,61,0.00,OVC,FEW,0.00,WeatherDisplay:10.37,2013-07-15 22:48:00,
2013-07-15 17:54:00,89.6,74.9,30.13,SE,135,0.0,3.5,62,0.00,OVC,FEW,0.00,WeatherDisplay:10.37,2013-07-15 22:54:00,
2013-07-15 17:59:00,89.2,75.5,30.13,North,0,0.7,1.2,64,0.00,OVC,FEW,0.00,WeatherDisplay:10.37,2013-07-15 22:59:00,
2013-07-15 18:05:00,89.1,76.2,30.13,South,180,0.0,2.3,66,0.00,OVC,FEW,0.00,WeatherDisplay:10.37,2013-07-15 23:05:00,
2013-07-15 18:11:00,88.9,76.0,30.13,NE,45,0.0,3.5,66,0.00,OVC,FEW,0.00,WeatherDisplay:10.37,2013-07-15 23:11:00,
2013-07-15 18:16:00,88.5,75.2,30.14,SW,225,0.0,1.2,65,0.00,OVC,FEW,0.00,WeatherDisplay:10.37,2013-07-15 23:16:00,
2013-07-15 18:22:00,88.5,74.8,30.14,East,90,0.7,2.3,64,0.00,OVC,FEW,0.00,WeatherDisplay:10.37,2013-07-15 23:22:00,
2013-07-15 18:30:00,88.5,76.2,30.13,East,90,0.7,3.5,67,0.00,OVC,FEW,0.00,WeatherDisplay:10.37,2013-07-15 23:30:00,
2013-07-15 18:36:00,88.5,76.2,30.13,SE,135,1.6,4.5,67,0.00,OVC,FEW,0.00,WeatherDisplay:10.37,2013-07-15 23:36:00,
2013-07-15 18:42:00,88.2,75.8,30.13,East,90,0.7,3.5,67,0.00,OVC,FEW,0.00,WeatherDisplay:10.37,2013-07-15 23:42:00,
2013-07-15 18:47:00,87.6,76.2,30.13,SE,135,0.0,1.2,69,0.00,OVC,FEW,0.00,WeatherDisplay:10.37,2013-07-15 23:47:00,
2013-07-15 18:54:00,87.3,76.7,30.14,North,0,0.0,1.2,71,0.00,OVC,FEW,0.00,WeatherDisplay:10.37,2013-07-15 23:54:00,
2013-07-15 19:00:00,87.1,77.0,30.14,South,180,0.7,3.8,72,0.00,OVC,FEW,0.00,WeatherDisplay:10.37,2013-07-16 00:00:00,
2013-07-15 19:06:00,87.1,77.0,30.14,SE,135,0.0,3.5,72,0.00,OVC,FEW,0.00,WeatherDisplay:10.37,2013-07-16 00:06:00,
2013-07-15 19:11:00,87.1,77.4,30.13,West,270,0.0,3.5,73,0.00,OVC,FEW,0.00,WeatherDisplay:10.37,2013-07-16 00:11:00,
2013-07-15 19:17:00,86.9,77.6,30.14,East,90,0.7,2.3,74,0.00,OVC,FEW,0.00,WeatherDisplay:10.37,2013-07-16 00:17:00,
2013-07-15 19:23:00,86.9,77.6,30.14,SE,135,0.0,1.2,74,0.00,OVC,FEW,0.00,WeatherDisplay:10.37,2013-07-16 00:23:00,
2013-07-15 19:29:00,86.7,77.8,30.14,South,180,0.0,1.6,75,0.00,OVC,FEW,0.00,WeatherDisplay:10.37,2013-07-16 00:29:00,
2013-07-15 19:35:00,86.5,77.7,30.14,South,180,0.0,1.2,75,0.00,OVC,FEW,0.00,WeatherDisplay:10.37,2013-07-16 00:35:00,
2013-07-15 19:40:00,86.4,77.9,30.14,SE,135,0.0,1.6,76,0.00,OVC,FEW,0.00,WeatherDisplay:10.37,2013-07-16 00:40:00,
2013-07-15 19:47:00,86.4,77.9,30.14,SE,135,0.7,2.3,76,0.00,OVC,FEW,0.00,WeatherDisplay:10.37,2013-07-16 00:47:00,
2013-07-15 19:52:00,86.4,77.5,30.14,SE,135,0.0,1.6,75,0.00,OVC,FEW,0.00,WeatherDisplay:10.37,2013-07-16 00:52:00,
2013-07-15 19:58:00,86.2,77.7,30.14,SE,135,0.0,1.2,76,0.00,OVC,FEW,0.00,WeatherDisplay:10.37,2013-07-16 00:58:00,
2013-07-15 20:03:00,86.0,77.5,30.14,East,90,0.0,1.2,76,0.00,OVC,FEW,0.00,WeatherDisplay:10.37,2013-07-16 01:03:00,
2013-07-15 20:09:00,85.6,77.6,30.14,SE,135,0.0,1.6,77,0.00,OVC,FEW,0.00,WeatherDisplay:10.37,2013-07-16 01:09:00,
2013-07-15 20:15:00,85.3,77.2,30.14,East,90,0.7,1.6,77,0.00,OVC,FEW,0.00,WeatherDisplay:10.37,2013-07-16 01:15:00,
2013-07-15 20:20:00,85.1,76.7,30.14,East,90,0.0,2.3,76,0.00,OVC,FEW,0.00,WeatherDisplay:10.37,2013-07-16 01:20:00,
2013-07-15 20:26:00,85.1,77.1,30.14,SE,135,0.0,1.2,77,0.00,OVC,FEW,0.00,WeatherDisplay:10.37,2013-07-16 01:26:00,
2013-07-15 20:33:00,84.7,76.7,30.14,East,90,0.0,1.6,77,0.00,OVC,FEW,0.00,WeatherDisplay:10.37,2013-07-16 01:33:00,
2013-07-15 20:39:00,84.4,76.4,30.14,NW,315,0.0,0.7,77,0.00,OVC,FEW,0.00,WeatherDisplay:10.37,2013-07-16 01:39:00,
2013-07-15 20:44:00,84.2,76.2,30.14,East,90,0.0,0.0,77,0.00,OVC,FEW,0.00,WeatherDisplay:10.37,2013-07-16 01:44:00,
2013-07-15 20:50:00,84.0,76.4,30.14,East,90,0.0,0.0,78,0.00,OVC,FEW,0.00,WeatherDisplay:10.37,2013-07-16 01:50:00,
2013-07-15 20:55:00,83.8,76.2,30.14,NE,45,0.0,1.2,78,0.00,OVC,FEW,0.00,WeatherDisplay:10.37,2013-07-16 01:55:00,
2013-07-15 21:01:00,83.7,76.1,30.14,NE,45,0.0,1.6,78,0.00,OVC,FEW,0.00,WeatherDisplay:10.37,2013-07-16 02:01:00,
2013-07-15 21:07:00,83.5,76.3,30.14,SE,135,0.0,1.2,79,0.00,OVC,FEW,0.00,WeatherDisplay:10.37,2013-07-16 02:07:00,
2013-07-15 21:12:00,83.1,75.9,30.14,East,90,0.0,0.0,79,0.00,OVC,FEW,0.00,WeatherDisplay:10.37,2013-07-16 02:12:00,
2013-07-15 21:18:00,83.1,75.9,30.15,South,180,0.0,1.2,79,0.00,OVC,FEW,0.00,WeatherDisplay:10.37,2013-07-16 02:18:00,
2013-07-15 21:23:00,82.8,75.6,30.15,South,180,0.0,0.0,79,0.00,OVC,FEW,0.00,WeatherDisplay:10.37,2013-07-16 02:23:00,
2013-07-15 21:30:00,82.4,75.6,30.15,South,180,0.0,0.0,80,0.00,OVC,FEW,0.00,WeatherDisplay:10.37,2013-07-16 02:30:00,
2013-07-15 21:35:00,82.2,75.8,30.15,SE,135,0.0,0.0,81,0.00,OVC,FEW,0.00,WeatherDisplay:10.37,2013-07-16 02:35:00,
2013-07-15 21:41:00,82.0,76.0,30.16,SE,135,0.0,0.0,82,0.00,OVC,FEW,0.00,WeatherDisplay:10.37,2013-07-16 02:41:00,
2013-07-15 21:47:00,81.9,75.8,30.16,SE,135,0.0,0.0,82,0.00,OVC,FEW,0.00,WeatherDisplay:10.37,2013-07-16 02:47:00,
2013-07-15 21:53:00,81.7,76.0,30.16,SE,135,0.0,0.0,83,0.00,OVC,FEW,0.00,WeatherDisplay:10.37,2013-07-16 02:53:00,
2013-07-15 21:59:00,81.5,76.2,30.16,SE,135,0.0,0.0,84,0.00,OVC,FEW,0.00,WeatherDisplay:10.37,2013-07-16 02:59:00,
2013-07-15 22:04:00,81.3,76.0,30.16,SE,135,0.0,0.0,84,0.00,OVC,FEW,0.00,WeatherDisplay:10.37,2013-07-16 03:04:00,
2013-07-15 22:10:00,81.3,76.0,30.17,SE,135,0.0,0.0,84,0.00,OVC,FEW,0.00,WeatherDisplay:10.37,2013-07-16 03:10:00,
2013-07-15 22:15:00,81.1,75.8,30.17,SE,135,0.0,0.0,84,0.00,OVC,FEW,0.00,WeatherDisplay:10.37,2013-07-16 03:15:00,
2013-07-15 22:22:00,81.0,75.7,30.17,SE,135,0.0,0.0,84,0.00,OVC,FEW,0.00,WeatherDisplay:10.37,2013-07-16 03:22:00,
2013-07-15 22:28:00,81.0,75.7,30.17,SE,135,0.0,0.0,84,0.00,OVC,FEW,0.00,WeatherDisplay:10.37,2013-07-16 03:28:00,
2013-07-15 22:34:00,80.8,75.5,30.17,SE,135,0.0,0.0,84,0.00,OVC,FEW,0.00,WeatherDisplay:10.37,2013-07-16 03:34:00,
2013-07-15 22:39:00,80.6,75.3,30.18,SE,135,0.0,0.0,84,0.00,OVC,FEW,0.00,WeatherDisplay:10.37,2013-07-16 03:39:00,
2013-07-15 22:45:00,80.6,75.3,30.17,SE,135,0.0,0.0,84,0.00,OVC,FEW,0.00,WeatherDisplay:10.37,2013-07-16 03:45:00,
2013-07-15 22:51:00,80.4,75.1,30.18,SE,135,0.0,0.0,84,0.00,OVC,FEW,0.00,WeatherDisplay:10.37,2013-07-16 03:51:00,
2013-07-15 22:56:00,80.2,75.0,30.18,SE,135,0.0,0.0,84,0.00,OVC,FEW,0.00,WeatherDisplay:10.37,2013-07-16 03:56:00,
2013-07-15 23:01:00,80.2,75.0,30.18,SE,135,0.0,0.0,84,0.00,OVC,FEW,0.00,WeatherDisplay:10.37,2013-07-16 04:01:00,
2013-07-15 23:03:00,80.1,74.8,30.18,SE,135,0.0,0.0,84,0.00,OVC,FEW,0.00,WeatherDisplay:10.37,2013-07-16 04:03:00,
2013-07-15 23:04:00,80.1,74.8,30.19,SE,135,0.0,0.0,84,0.00,OVC,FEW,0.00,WeatherDisplay:10.37,2013-07-16 04:04:00,
2013-07-15 23:07:00,80.1,74.8,30.19,SE,135,0.0,0.0,84,0.00,OVC,FEW,0.00,WeatherDisplay:10.37,2013-07-16 04:07:00,
2013-07-15 23:11:00,80.1,74.8,30.19,SE,135,0.0,0.0,84,0.00,OVC,FEW,0.00,WeatherDisplay:10.37,2013-07-16 04:11:00,
2013-07-15 23:16:00,79.9,74.6,30.19,East,90,0.0,0.0,84,0.00,OVC,FEW,0.00,WeatherDisplay:10.37,2013-07-16 04:16:00,
2013-07-15 23:22:00,79.9,74.6,30.19,North,0,0.0,0.0,84,0.00,OVC,FEW,0.00,WeatherDisplay:10.37,2013-07-16 04:22:00,
2013-07-15 23:27:00,79.9,74.6,30.19,North,0,0.0,0.0,84,0.00,OVC,FEW,0.00,WeatherDisplay:10.37,2013-07-16 04:27:00,
2013-07-15 23:33:00,79.9,74.6,30.19,East,90,0.0,0.0,84,0.00,OVC,FEW,0.00,WeatherDisplay:10.37,2013-07-16 04:33:00,
2013-07-15 23:39:00,80.2,75.0,30.19,East,90,0.0,0.0,84,0.00,OVC,FEW,0.00,WeatherDisplay:10.37,2013-07-16 04:39:00,
2013-07-15 23:44:00,80.2,75.0,30.19,East,90,0.0,0.0,84,0.00,OVC,FEW,0.00,WeatherDisplay:10.37,2013-07-16 04:44:00,
2013-07-15 23:50:00,79.7,74.4,30.19,NW,315,0.0,0.0,84,0.00,OVC,FEW,0.00,WeatherDisplay:10.37,2013-07-16 04:50:00,
2013-07-15 23:55:00,80.1,74.8,30.19,North,0,0.0,0.0,84,0.00,OVC,FEW,0.00,WeatherDisplay:10.37,2013-07-16 04:55:00,